Theta_e
335 338 340 340 332 333 333 333 334 337 338 339 341 339 337 335 335 337 338 339 340 341 340 338 336 336 336 334 334 332 330 330 330 328 330 328 328 330 331 334 333 332 333
331 334 335 337 337 337 336 337 337 339 340 342 341 340 337 334 333 334 335 334 335 335 334 333 333 334 332 331 333 331 329 329 330 326 322 320 323 326 331 331 331 331 332
331 331 332 334 336 337 338 339 340 343 343 342 339 336 333 333 331 331 330 332 331 332 331 330 328 327 326 324 324 327 328 325 328 329 326 320 318 322 330 330 330 331 332
331 330 331 333 334 335 337 339 340 342 340 340 336 333 332 328 330 329 330 330 329 326 325 325 324 323 320 320 321 321 321 324 318 325 327 327 325 320 318 326 328 330 330
328 329 331 332 334 334 334 334 336 338 339 338 337 335 331 328 326 323 322 320 321 321 319 319 318 316 315 317 318 318 317 317 317 317 321 321 322 325 320 316 319 325 329
325 328 331 331 333 331 330 331 332 332 334 335 334 331 325 322 319 317 316 316 315 314 315 316 316 316 314 313 313 314 314 315 315 315 317 316 315 316 317 315 316 318 326
326 327 329 330 330 327 328 327 328 327 330 332 331 326 322 320 318 317 315 314 313 313 312 313 312 313 315 313 312 311 312 314 315 314 314 314 314 315 315 315 312 312 321
326 327 330 331 327 325 325 325 324 320 323 326 326 323 320 318 316 314 313 313 312 312 311 310 310 311 311 309 308 308 310 313 312 310 310 310 310 311 312 310 308 309 315
325 326 329 328 322 321 320 320 318 316 318 321 322 320 315 315 313 313 313 312 311 309 309 309 308 308 308 307 307 306 309 311 308 306 306 307 306 305 307 310 311 310 306
324 326 327 321 318 319 318 318 317 315 316 319 320 316 315 315 313 313 311 310 309 309 308 308 308 308 307 307 307 307 309 307 306 305 304 304 304 303 303 304 307 310 308
324 325 320 317 318 318 318 318 318 315 315 317 317 314 313 314 313 312 310 308 308 308 308 308 308 308 307 306 307 308 307 305 304 304 303 303 304 302 302 303 304 306 308
323 321 317 317 317 317 317 316 316 316 316 316 316 315 314 313 311 310 308 308 307 308 308 308 308 307 306 307 307 306 305 304 302 302 301 301 302 302 302 302 303 304 306
319 317 317 317 316 317 317 315 316 316 317 316 315 314 313 312 310 309 308 308 307 307 307 307 306 306 306 305 305 305 304 303 302 301 301 300 301 301 301 303 303 304 305
316 317 317 317 317 318 318 316 316 317 317 317 315 314 313 312 311 309 308 307 307 306 305 306 305 305 305 304 303 303 301 301 301 301 301 300 300 301 303 304 305 305 304
316 317 316 316 318 318 318 319 317 317 317 316 315 315 314 311 309 308 307 306 306 305 305 303 302 302 304 303 301 301 300 299 299 299 300 301 303 306 304 305 305 305 304
317 318 318 318 317 318 319 319 318 317 317 316 315 315 311 310 308 307 305 305 304 302 302 301 300 300 302 302 302 300 299 299 298 297 298 299 302 302 300 301 303 306 306
316 318 318 319 320 320 321 319 318 319 317 317 315 312 310 307 305 304 303 302 300 300 298 298 299 299 299 300 300 301 299 298 297 297 297 298 300 299 299 299 300 301 305
310 316 317 317 317 316 317 318 318 315 312 309 307 307 304 303 303 302 300 299 299 298 298 297 297 297 297 298 298 299 299 297 297 297 298 300 300 299 299 298 298 299 301
311 312 314 310 309 309 310 308 305 305 304 303 302 303 302 300 300 298 297 296 297 296 296 296 296 295 295 296 296 298 297 297 298 300 300 300 300 298 297 297 297 297 298
303 303 303 304 303 305 306 305 303 303 301 302 301 300 300 299 298 297 296 296 296 295 295 295 295 295 296 295 295 297 296 296 297 299 299 299 299 297 296 297 296 295 296
300 301 301 301 302 302 301 299 299 299 300 300 299 298 298 297 296 295 295 295 294 293 293 292 293 294 295 296 295 295 297 296 296 295 295 296 296 295 295 295 296 295 296
297 298 297 296 298 299 298 296 295 298 297 297 296 295 295 296 295 294 293 293 292 290 291 291 292 293 295 295 295 295 295 296 295 295 297 297 295 295 295 295 295 294 295
295 296 295 295 295 296 296 294 296 296 296 294 293 294 294 294 293 293 291 291 291 291 292 292 292 292 295 295 295 294 294 295 296 297 297 296 294 294 294 295 295 295 295
293 294 293 293 293 295 295 295 295 295 294 292 292 292 291 291 291 291 291 290 290 290 290 290 291 292 293 293 294 294 293 294 294 295 295 295 295 295 295 295 295 295 294
294 294 293 292 292 294 294 294 294 293 292 291 291 290 290 290 290 291 291 290 291 291 289 290 289 288 288 291 290 290 290 290 290 290 290 291 292 292 293 294 294 294 294
293 292 291 291 292 292 292 293 293 292 290 289 289 290 291 290 290 290 290 291 291 291 290 290 289 289 290 290 289 289 288 288 288 287 286 287 289 290 291 292 293 293 293
Wind_Speed
5 4 5 7 9 8 9 11 10 8 10 7 6 4 4 3 2 4 6 8 6 5 6 4 5 4 4 4 2 1 3 2 3 2 3 3 3 3 3 3 4 7 8
7 7 5 4 7 9 10 10 10 12 9 7 4 4 4 3 3 4 7 7 7 7 6 5 5 5 4 4 5 4 2 2 3 2 0 3 4 3 5 3 4 6 6
16 9 8 6 7 11 13 13 12 12 9 11 10 7 7 5 3 4 4 5 6 6 7 7 6 6 5 4 5 4 5 3 2 4 2 2 2 3 3 4 4 6 7
5 5 4 4 4 4 7 10 10 11 11 12 11 15 7 6 3 3 5 5 6 8 7 8 7 6 4 6 5 4 4 2 4 2 4 2 2 3 4 4 6 6 8
6 6 4 5 2 4 5 6 9 10 11 10 12 9 10 6 6 6 8 7 6 6 8 6 7 6 5 5 5 4 5 3 2 3 3 2 2 3 3 5 9 7 6
7 6 4 5 5 3 5 6 9 7 9 10 11 14 15 13 10 8 7 5 5 4 6 5 5 5 5 5 4 4 6 4 4 3 4 4 3 3 3 4 7 9 5
14 13 14 12 8 7 5 5 7 7 8 11 12 13 14 13 14 11 8 8 4 3 4 4 5 4 4 5 5 5 5 5 4 4 4 4 4 3 3 3 5 6 5
15 18 20 16 11 7 7 6 6 7 7 11 12 12 13 9 8 7 7 6 5 5 4 5 5 5 5 5 4 3 4 4 5 6 5 3 4 4 3 4 5 6 3
18 21 17 13 10 8 7 6 6 5 6 10 9 10 8 11 11 8 7 6 7 5 6 5 5 5 5 5 4 3 4 6 4 4 4 3 3 4 4 3 3 3 5
13 12 12 12 11 9 6 7 6 6 6 8 9 9 8 7 8 8 8 6 5 5 6 6 6 5 4 5 4 3 3 5 3 3 4 5 4 5 4 4 4 2 2
9 13 12 13 12 10 9 6 4 6 6 7 6 12 12 9 7 8 8 7 5 6 5 6 6 5 4 3 4 4 4 5 4 4 5 5 5 5 5 4 3 4 3
13 14 15 17 15 14 11 9 7 8 8 7 7 6 10 8 9 8 7 7 8 5 5 5 5 5 5 4 4 4 3 3 4 4 5 6 6 7 6 4 5 4 5
15 16 16 17 17 16 16 16 15 11 7 6 8 8 8 9 9 10 8 6 7 6 6 5 5 5 4 4 3 2 2 3 3 3 3 6 7 7 6 7 6 4 4
16 15 15 16 17 17 17 17 19 21 17 17 13 14 11 10 9 9 8 8 7 7 6 4 5 4 5 3 2 2 2 3 3 4 5 6 6 7 9 7 8 6 5
12 16 19 19 19 17 14 12 9 13 14 15 12 10 8 6 5 6 6 6 6 6 6 5 4 3 3 2 4 3 1 2 4 5 5 5 8 10 9 7 7 8 5
13 15 15 15 16 15 13 11 12 12 13 12 12 10 10 9 7 7 6 7 7 6 6 5 4 1 1 4 6 2 2 4 5 7 7 6 6 7 11 13 12 9 7
9 10 13 14 12 10 8 9 7 7 9 8 8 8 9 8 7 8 7 7 6 6 6 4 2 1 1 4 2 4 1 4 5 6 6 5 5 7 8 11 11 10 7
12 9 6 4 4 6 8 8 8 9 10 9 9 9 11 10 7 8 8 5 4 4 3 2 2 1 4 5 5 6 4 4 7 7 8 5 3 4 6 9 10 8 7
7 3 5 9 9 11 12 15 14 14 14 13 12 11 11 12 8 8 8 4 4 2 1 2 1 0 4 6 5 6 4 5 7 6 6 3 3 6 3 7 10 11 7
13 13 15 15 17 13 15 18 16 16 15 12 12 10 13 9 8 6 5 3 2 1 3 4 3 5 3 5 5 3 2 5 6 5 4 4 7 10 7 5 6 10 9
17 16 19 17 16 15 18 21 17 16 12 12 10 13 10 10 5 3 3 1 3 4 3 4 5 6 5 5 7 8 5 5 6 6 5 4 8 6 5 7 7 9 7
19 19 19 19 16 17 18 18 18 13 12 11 10 10 6 8 5 6 4 2 3 5 5 5 6 5 5 7 6 8 7 8 6 7 6 5 7 8 9 7 10 13 11
18 18 18 17 16 15 15 16 11 10 9 10 9 8 9 6 5 4 6 4 4 3 5 5 5 6 5 4 8 11 10 10 7 7 7 8 9 11 9 13 14 12 7
18 17 18 17 12 13 14 12 8 9 11 9 7 6 6 6 4 3 3 2 3 4 5 6 7 7 7 6 6 6 6 8 8 9 6 8 10 12 13 12 10 8 7
15 15 16 13 8 15 13 11 7 11 8 7 6 6 6 3 3 4 4 5 5 7 7 7 7 6 6 5 10 8 7 6 7 10 7 7 7 8 8 8 7 7 7
12 14 12 11 12 10 12 10 9 6 7 8 5 4 3 2 4 4 4 5 7 8 9 11 9 7 9 11 13 13 14 14 12 7 7 7 8 8 8 8 7 7 9
Wind_Direction
217 216 184 180 175 182 166 169 162 162 154 151 148 136 109 105 68 66 59 61 69 79 97 101 100 103 88 95 106 215 330 333 341 338 317 324 334 320 274 297 305 305 303
201 185 171 161 177 163 165 154 164 161 174 160 127 127 126 98 107 93 84 89 94 86 89 84 75 72 72 49 60 44 296 316 357 357 343 352 340 322 315 334 334 322 308
200 181 175 176 158 163 163 161 163 158 156 128 117 104 95 102 93 76 83 77 85 86 103 88 80 76 79 74 56 35 37 20 339 21 348 351 334 317 318 336 330 321 314
170 163 172 183 184 149 133 144 146 139 135 141 136 146 143 143 119 121 99 75 70 79 70 77 75 68 64 64 52 42 35 61 23 336 21 41 285 334 326 323 319 333 320
189 182 185 168 173 139 138 123 122 127 141 140 139 131 119 115 112 108 101 95 81 84 80 76 80 73 71 70 64 54 50 41 59 33 343 357 324 356 297 313 327 325 327
167 161 153 174 183 148 123 124 120 120 130 132 138 137 135 135 133 123 118 109 99 85 81 88 89 81 76 74 70 61 49 47 64 58 48 46 5 348 341 313 329 312 321
176 178 182 191 187 177 135 107 121 122 130 135 134 135 136 141 141 141 140 134 123 90 89 88 78 78 81 74 70 60 56 40 59 50 65 55 44 9 329 320 331 323 310
194 192 189 187 177 152 130 121 118 125 139 135 133 141 140 141 130 133 134 131 124 116 113 94 85 84 80 71 74 83 74 75 60 56 48 50 30 21 19 351 343 322 308
196 195 185 172 141 125 116 120 118 112 142 136 131 129 116 131 136 131 129 135 128 123 118 108 102 87 81 81 87 84 92 93 76 56 44 36 8 12 1 347 351 327 318
188 181 154 139 119 123 117 103 114 144 129 121 130 124 120 118 121 128 133 129 121 120 125 113 100 89 82 77 68 81 84 94 82 71 35 19 348 346 350 344 328 305 289
158 151 143 126 128 127 133 132 147 134 119 121 153 141 139 130 137 143 143 135 128 128 119 118 107 94 79 59 72 95 95 97 89 61 32 360 334 337 332 333 328 310 296
143 144 140 136 143 144 149 156 151 149 146 146 145 137 135 140 145 146 153 146 139 126 122 106 93 87 70 49 79 93 94 87 71 44 19 348 337 325 313 313 314 298 295
143 148 157 156 157 163 167 167 159 149 144 148 154 164 146 163 160 166 157 142 132 129 124 118 114 104 102 100 69 61 79 81 64 19 3 329 329 318 312 308 303 300 301
160 161 165 167 172 175 182 173 175 159 169 168 188 165 180 174 172 169 152 142 147 138 126 127 121 113 122 93 98 97 51 20 1 336 328 319 312 301 304 306 304 300 304
185 181 176 179 183 183 179 181 174 164 169 173 172 180 174 145 149 132 134 127 119 118 118 120 95 84 136 153 151 129 137 291 315 308 299 303 308 336 341 324 321 310 293
218 198 199 192 188 183 185 176 176 173 162 176 176 156 143 142 149 126 116 123 126 118 116 108 112 130 161 154 146 159 281 303 300 298 302 303 311 338 344 344 344 335 297
281 239 221 198 196 191 184 170 148 138 149 147 132 138 126 132 125 124 130 120 109 120 116 97 112 173 238 192 282 310 271 291 282 277 274 286 328 340 341 337 347 342 14
296 279 187 169 134 115 101 104 116 107 108 104 108 111 110 99 93 99 93 94 85 79 101 130 233 352 281 269 265 265 260 277 273 265 258 247 267 284 327 336 332 337 336
350 359 90 98 88 93 105 97 86 87 84 79 78 67 80 80 64 80 51 0 74 58 298 257 327 299 295 294 282 288 293 287 281 274 297 250 255 249 266 319 313 314 322
52 64 74 77 78 78 92 89 83 82 77 65 76 68 88 46 67 56 50 320 20 101 301 313 298 292 297 305 319 303 281 290 281 271 273 270 252 272 243 243 272 294 309
67 72 67 70 71 79 84 83 80 74 75 75 63 68 40 78 15 65 123 344 353 326 318 322 295 283 278 285 294 310 308 301 303 296 270 242 227 258 273 245 267 270 292
66 63 72 70 66 68 75 81 83 87 86 80 75 62 33 41 37 340 20 347 6 336 308 288 297 293 303 291 296 302 310 303 296 284 274 270 229 252 257 251 255 266 274
71 66 61 58 70 65 66 75 71 70 81 83 70 64 65 37 25 8 4 339 337 323 324 318 311 304 302 307 307 310 303 297 300 293 279 258 254 257 263 257 250 250 257
64 65 68 53 49 76 69 77 66 75 71 52 76 68 74 52 1 27 324 305 324 327 338 334 330 321 322 321 343 346 337 312 302 312 305 296 278 267 266 269 261 250 249
62 63 69 73 41 62 62 61 64 74 59 74 36 47 60 18 5 18 330 353 351 356 352 345 337 330 339 345 325 308 292 297 296 300 280 272 265 261 258 252 246 250 248
62 63 61 59 54 59 66 49 45 72 67 56 34 17 34 359 357 341 338 343 329 327 332 331 329 327 301 308 302 299 308 300 291 288 283 279 272 267 264 257 251 245 254